CW7222 Weather Reports


time (UTC)temp
C
wind
direction
speed
KPH
gust
KPH
rain 1hr
cm
rain 24hr
cm
rain mn
cm
humidity
%
barometer
mb
20190422130335 17 121 4.8 16.1 0.00 0.00 0.00 64 998.6
20190422125346 17 88 9.7 24.1 0.00 0.00 0.00 64 998.4
20190422124334 17 107 3.2 33.8 0.00 0.00 0.00 64 997.8
20190422123342 17 105 9.7 22.5 0.00 0.00 0.00 65 997.8
20190422122351 16 120 1.6 32.2 0.00 0.00 0.00 65 997.8
20190422121343 17 41 14.5 40.2 0.00 0.00 0.00 65 998.6
20190422120352 17 123 8.0 33.8 0.00 0.00 0.00 67 998.6
20190422115337 16 28 6.4 19.3 0.00 0.00 0.00 68 999.3
20190422114346 16 33 6.4 27.4 0.00 0.00 0.00 68 999.4
20190422113333 17 55 11.3 32.2 0.00 0.00 0.00 67 999.4
20190422112343 17 96 9.7 35.4 0.00 0.00 0.00 68 999.5
20190422111330 17 30 6.4 30.6 0.00 0.00 0.00 66 999.6
20190422110337 17 336 9.7 24.1 0.00 0.00 0.00 66 999.6
20190422105346 17 45 3.2 25.7 0.00 0.00 0.00 66 998.9
20190422104336 17 39 14.5 33.8 0.00 0.00 0.00 65 999.4
20190422103345 18 360 14.5 27.4 0.00 0.00 0.00 64 999.4
20190422102337 18 92 17.7 33.8 0.00 0.00 0.00 64 999.6
20190422101345 18 61 12.9 30.6 0.00 0.00 0.00 65 999.9
20190422100353 17 29 12.9 33.8 0.00 0.00 0.00 65 999.9
20190422095338 17 99 8.0 35.4 0.00 0.00 0.00 66 1000.0
20190422094348 17 84 12.9 33.8 0.00 0.00 0.00 65 1000.1
20190422093341 17 84 11.3 30.6 0.00 0.00 0.00 67 1000.1
20190422092351 17 98 12.9 29.0 0.00 0.00 0.00 66 1000.1
20190422091336 17 91 11.3 30.6 0.00 0.00 0.00 65 999.9
20190422090342 17 49 6.4 29.0 0.00 0.00 0.00 64 999.9
20190422085352 17 40 6.4 30.6 0.00 0.00 0.00 64 1000.2
20190422084344 17 101 8.0 35.4 0.00 0.00 0.00 64 1000.2
20190422083333 17 310 14.5 32.2 0.00 0.00 0.00 64 1000.2
20190422082340 17 63 9.7 37.0 0.00 0.00 0.00 64 1000.2
20190422081351 17 36 8.0 27.4 0.00 0.00 0.00 63 1000.2
20190422080336 17 57 19.3 33.8 0.00 0.00 0.00 60 1000.2
20190422075341 17 53 12.9 20.9 0.00 0.00 0.00 57 1000.3
20190422074333 17 38 4.8 30.6 0.00 0.00 0.00 57 1000.4
20190422073338 17 63 11.3 25.7 0.00 0.00 0.00 57 1000.4
20190422072344 17 32 11.3 30.6 0.00 0.00 0.00 57 1000.4
20190422071333 16 44 8.0 17.7 0.00 0.00 0.00 59 1000.4
20190422070340 16 32 6.4 14.5 0.00 0.00 0.00 63 1000.4
20190422065332 15 86 6.4 22.5 0.00 0.00 0.00 64 1000.4
20190422064341 15 95 6.4 20.9 0.00 0.00 0.00 65 1000.9
20190422063349 16 78 4.8 14.5 0.00 0.00 0.00 66 1000.9
20190422062340 15 114 4.8 25.7 0.00 0.00 0.00 66 1000.0
20190422061349 15 61 11.3 29.0 0.00 0.00 0.00 66 1000.9
20190422060344 15 76 9.7 29.0 0.00 0.00 0.00 67 1000.9
20190422055350 15 59 6.4 22.5 0.00 0.00 0.00 68 1000.8
20190422054338 15 38 4.8 17.7 0.00 0.00 0.00 68 1000.9
20190422053346 15 94 9.7 20.9 0.00 0.00 0.00 70 1000.9
20190422052333 15 33 6.4 19.3 0.00 0.00 0.00 70 1000.7
20190422051344 15 38 9.7 27.4 0.00 0.00 0.00 70 1000.6
20190422050337 15 68 6.4 41.8 0.00 0.00 0.00 69 1000.6
20190422045344 15 60 9.7 20.9 0.00 0.00 0.00 69 1000.9
20190422044351 15 44 4.8 24.1 0.00 0.00 0.00 68 1001.0
20190422043339 15 35 6.4 25.7 0.00 0.00 0.00 67 1001.0
20190422042347 15 346 3.2 27.4 0.00 0.00 0.00 65 1001.2
20190422041338 15 109 9.7 25.7 0.00 0.00 0.00 64 1001.5
20190422040345 15 12 4.8 27.4 0.00 0.00 0.00 63 1001.5
20190422035349 16 68 11.3 27.4 0.00 0.00 0.00 60 1001.4
20190422034338 16 32 12.9 27.4 0.00 0.00 0.00 59 1001.5
20190422033348 16 34 17.7 35.4 0.00 0.00 0.00 59 1001.5
20190422032339 16 22 16.1 33.8 0.00 0.00 0.00 59 1001.5
20190422031346 16 55 11.3 33.8 0.00 0.00 0.00 60 1002.0
20190422030334 15 49 11.3 22.5 0.00 0.00 0.00 62 1002.0
20190422025340 15 55 9.7 25.7 0.00 0.00 0.00 65 1002.4
20190422024347 15 25 9.7 27.4 0.00 0.00 0.00 66 1003.0
20190422023335 15 76 9.7 25.7 0.00 0.00 0.00 67 1003.0
20190422022346 15 30 6.4 24.1 0.00 0.00 0.00 67 1003.0
20190422021334 15 68 6.4 32.2 0.00 0.00 0.00 66 1002.6
20190422020342 16 40 9.7 27.4 0.00 0.00 0.00 64 1002.6
20190422015348 16 27 12.9 32.2 0.00 0.00 0.00 65 1002.6
20190422014334 16 94 8.0 30.6 0.00 0.00 0.00 65 1003.0
20190422013347 16 342 11.3 30.6 0.00 0.00 0.00 64 1003.0
20190422012336 16 329 12.9 35.4 0.00 0.00 0.00 63 1003.5
20190422011343 16 30 11.3 25.7 0.00 0.00 0.00 63 1004.2
20190422010333 16 48 9.7 33.8 0.00 0.00 0.00 63 1004.2
20190422005341 16 57 4.8 14.5 0.00 0.00 0.00 62 1004.7
20190422004336 16 12 8.0 27.4 0.00 0.00 0.00 62 1005.0
20190422003344 16 42 8.0 25.7 0.00 0.00 0.00 62 1005.0
20190422002331 16 44 3.2 20.9 0.00 0.00 0.00 61 1005.2
20190422001339 16 44 6.4 25.7 0.00 0.00 0.00 60 1005.3
20190422000346 16 5 12.9 29.0 0.00 0.00 0.00 60 1005.3
20190421235331 16 30 20.9 37.0 0.00 0.00 0.00 60 1005.3
20190421234343 16 350 4.8 27.4 0.00 0.00 0.00 60 1005.4
20190421233331 16 348 6.4 35.4 0.00 0.00 0.00 60 1005.4
20190421232342 16 26 6.4 29.0 0.00 0.00 0.00 60 1005.3
20190421231346 16 49 11.3 30.6 0.00 0.00 0.00 59 1005.6
20190421230351 16 59 11.3 33.8 0.00 0.00 0.00 59 1005.6
20190421225341 16 56 14.5 30.6 0.00 0.00 0.00 59 1005.7
20190421224349 16 48 14.5 30.6 0.00 0.00 0.00 60 1006.1
20190421223336 16 37 6.4 29.0 0.00 0.00 0.00 60 1006.1
20190421222343 16 26 6.4 24.1 0.00 0.00 0.00 59 1006.2
20190421221347 16 73 9.7 25.7 0.00 0.00 0.00 59 1006.2
20190421220348 16 40 6.4 25.7 0.00 0.00 0.00 60 1006.2
20190421215334 16 72 12.9 25.7 0.00 0.00 0.00 61 1006.7
20190421214339 16 59 14.5 35.4 0.00 0.00 0.00 62 1007.1
20190421213348 16 59 6.4 32.2 0.00 0.00 0.00 63 1007.1
20190421212335 16 344 17.7 45.1 0.00 0.00 0.00 62 1007.2
20190421211343 16 36 16.1 40.2 0.00 0.00 0.00 62 1007.5
20190421210350 16 56 12.9 32.2 0.00 0.00 0.00 62 1007.5
20190421205342 16 79 14.5 30.6 0.00 0.00 0.00 63 1007.7
20190421204351 16 69 1.6 22.5 0.00 0.00 0.00 64 1007.9
20190421203339 16 75 8.0 33.8 0.00 0.00 0.00 64 1007.9
20190421202347 16 33 12.9 32.2 0.00 0.00 0.00 65 1008.0
20190421201334 16 22 6.4 30.6 0.00 0.00 0.00 66 1008.1
20190421200344 16 59 4.8 27.4 0.00 0.00 0.00 67 1008.1
20190421195349 16 40 14.5 33.8 0.00 0.00 0.00 68 1007.8
20190421194338 16 17 8.0 25.7 0.00 0.00 0.00 68 1007.8
20190421193348 16 87 8.0 35.4 0.00 0.00 0.00 68 1007.8
20190421192354 16 69 6.4 25.7 0.00 0.00 0.00 69 1007.8
20190421191358 16 82 6.4 27.4 0.00 0.00 0.00 69 1007.6
20190421190334 16 65 11.3 25.7 0.00 0.00 0.00 68 1007.6
20190421185345 16 59 6.4 27.4 0.00 0.00 0.00 67 1007.5
20190421184352 16 95 8.0 22.5 0.00 0.00 0.00 67 1007.6
20190421183340 16 103 6.4 24.1 0.00 0.00 0.00 66 1007.6
20190421182333 16 90 1.6 24.1 0.00 0.00 0.00 66 1007.6
20190421181341 16 86 12.9 43.5 0.00 0.00 0.00 65 1007.4
20190421180349 16 309 8.0 24.1 0.00 0.00 0.00 65 1007.4
20190421175335 17 45 12.9 30.6 0.00 0.20 0.00 64 1007.4
20190421174342 17 342 17.7 40.2 0.00 0.20 0.00 64 1007.5
20190421173350 17 130 4.8 30.6 0.00 0.20 0.00 64 1007.5
20190421172341 17 32 11.3 27.4 0.00 0.20 0.00 62 1007.7
20190421171350 17 130 3.2 19.3 0.00 0.20 0.00 62 1007.8
20190421170340 17 360 12.9 35.4 0.00 0.20 0.00 62 1007.8
20190421165347 17 65 9.7 27.4 0.00 0.20 0.00 61 1008.0
20190421164334 18 124 9.7 27.4 0.00 0.20 0.00 60 1008.0
20190421163346 17 49 6.4 20.9 0.00 0.20 0.00 60 1008.0
20190421162334 17 131 6.4 27.4 0.00 0.20 0.00 60 1008.3
20190421161344 18 74 9.7 33.8 0.00 0.20 0.00 60 1008.3
20190421160352 18 125 11.3 27.4 0.00 0.20 0.00 61 1008.3
20190421155336 18 123 6.4 25.7 0.00 0.20 0.00 60 1008.5
20190421154344 18 79 8.0 24.1 0.00 0.20 0.00 60 1008.7
20190421153338 18 116 12.9 25.7 0.00 0.20 0.00 60 1008.7
20190421152345 18 90 11.3 27.4 0.00 0.20 0.00 60 1008.7
20190421151353 18 87 9.7 29.0 0.00 0.20 0.00 59 1008.8
20190421150340 18 14 4.8 37.0 0.00 0.20 0.00 59 1008.8
20190421145348 18 117 11.3 33.8 0.00 0.20 0.00 59 1008.8
20190421144338 18 60 11.3 38.6 0.00 0.20 0.00 58 1009.1
20190421143346 18 59 8.0 29.0 0.00 0.20 0.00 57 1009.1
20190421142351 18 19 11.3 30.6 0.00 0.20 0.00 55 1009.3
20190421141340 19 79 12.9 32.2 0.00 0.20 0.00 54 1009.4
20190421140343 19 40 12.9 27.4 0.00 0.20 0.00 53 1009.4
20190421135349 19 12 17.7 38.6 0.00 0.20 0.00 53 1009.4
20190421134340 19 99 9.7 22.5 0.00 0.20 0.00 51 1009.8
20190421133349 19 109 12.9 25.7 0.00 0.20 0.00 51 1009.8
20190421132338 20 30 12.9 30.6 0.00 0.20 0.00 51 1009.8
20190421131343 19 347 11.3 37.0 0.00 0.20 0.00 51 1009.9